Regional Weather Roundup
Issued by NWS Green Bay, WI

Home | Current Version | Previous Version | Text Only | Print | Product List | Glossary On
Versions: 1 2 3 4 5 6 7 8 9 10 11 12 13 14 15 16 17 18 19 20 21 22 23 24 25 26 27 28 29 30 31 32 33 34 35 36 37 38 39 40 41 42 43 44 45 46 47 48 49 50
000
ASUS43 KGRB 291510
RWRGRB

NORTH-CENTRAL AND NORTHEAST WISCONSIN REGIONAL WEATHER ROUNDUP
NATIONAL WEATHER SERVICE GREEN BAY WI
1000 AM CDT TUE JUL 29 2014

WIZ005-009-010>012-018-019-291600-
NORTH CENTRAL WISCONSIN

CITY           SKY/WX    TMP DP  RH WIND       PRES   REMARKS
IRONWOOD       CLOUDY    64  57  77 W8        30.04S
MANITOWISH WTR MOSUNNY   64  56  75 N5        30.06S
ARBOR VITAE    MOSUNNY   67  58  74 N6        30.06S
EAGLE RIVER    SUNNY     64  53  68 NW8       30.05S
LAND O LAKES   PTSUNNY   65  55  69 NW7       30.06S
RHINELANDER    PTSUNNY   63  55  75 VRB3      30.07S
PHILLIPS       SUNNY     64  57  78 N3        30.08S
ANTIGO         CLOUDY    64  56  76 N8        30.05S
TOMAHAWK       PTSUNNY   63  56  77 NW6       30.07F
MERRILL        PTSUNNY   65  56  74 N9        30.06S
$$

WIZ013-073-291600-
NORTHEAST WISCONSIN

CITY           SKY/WX    TMP DP  RH WIND       PRES   REMARKS
IRON MOUNTAIN  PTSUNNY   66  53  63 NW14      30.00S
MARINETTE      MOSUNNY   64  54  68 N7        29.99S
OCONTO         CLOUDY    65  55  69 W5        30.00F
$$

WIZ017-030-035>037-045-291600-
CENTRAL WISCONSIN

CITY           SKY/WX    TMP DP  RH WIND       PRES   REMARKS
MEDFORD        PTSUNNY   63  56  78 NW7       30.08S
WAUSAU         MOSUNNY   65  54  67 NW9       30.05S
MOSINEE        PTSUNNY   64  57  77 NW6       30.07S
MARSHFIELD     SUNNY     71  55  56 NW13      30.07F
WISC RAPIDS    MOSUNNY   70  55  59 NW8       30.07F
STEVENS POINT  CLOUDY    64  54  70 NW3       30.06F
WAUPACA        CLOUDY    69  55  61 NW7       30.05S
SHAWANO        CLOUDY    68  55  64 NW6       30.03S
CLINTONVILLE   CLOUDY    66  52  59 NW8       30.03S
$$

WIZ038-039-048-051-291600-
FOX VALLEY

CITY           SKY/WX    TMP DP  RH WIND       PRES   REMARKS
NWS GREEN BAY  PTSUNNY   70  56  61 N7        30.02F
APPLETON       CLOUDY    66  54  63 NW8       30.04
OSHKOSH        PTSUNNY   69  55  60 NW7       30.04S
FOND DU LAC    SUNNY     68  54  60 N9        30.04F
$$

WIZ022-050-052-291600-
EAST CENTRAL WISCONSIN

CITY           SKY/WX    TMP DP  RH WIND       PRES   REMARKS
STURGEON BAY   MOSUNNY   64  54  68 NW6       30.01S
MANITOWOC      SUNNY     69  55  60 N6        30.01F
SHEBOYGAN      SUNNY     68  57  68 VRB5      30.02F
$$

LMZ563-521-522-541>543-291600-
LAKESHORE

STATION/POSITION TIME  TEMP    WIND        PRES    VSBY  WAVE
                       AIR SEA DIR/SP/G                  HT/PER
                 (UTC) (F)     (DEG/KT/KT) (MB)    (MI)  (FT/S)
SHEBOYGAN LKSHOR 1500   66      10/  5/  5 1016.7S
KEWAUNEE LKSHORE 1500   66     310/  6/  9 1016.6F
NORTHPORT PIER   1500   61     320/  9/ 11 1015.2F
N MID LAKE BUOY  1500   56 51  280/  6/  6 1014.7S         1
S GREEN BAY BUOY 1500   64 66  320/  4     1016.9F
CHAMBERS ISLAND  1500   64     310/  6/  8 1015.9S
MENOMINEE LKSHOR 1500   62     330/  7/ 10 1016.3R
$$



USA.gov is the U.S. government's official web portal to all federal, state and local government web resources and services.